FW1892 Weather Reports


Display with metric or nautical units.
time (UTC)temp
F
wind
direction
speed
MPH
gust
MPH
rain 1hr
in
rain 24hr
in
rain mn
in
humidity
%
barometer
mb
20260901115204 63 338 0.0 0.0 0.02 0.02 0.02 89 1016.4
20260901115032 62 313 0.0 0.0 0.05 0.02 0.02 91 1017.1
20260901114528 62 137 0.0 1.0 0.07 0.01 0.01 91 1017.2
20260901114203 63 338 0.0 0.0 0.01 0.01 0.01 88 1016.2
20260901114026 62 131 0.0 0.0 0.07 0.01 0.01 90 1016.7
20260901113703 63 338 0.0 0.0 0.00 0.00 0.00 88 1015.9
20260901113525 62 161 0.0 0.0 0.00 0.00 0.00 88 1016.9
20260901113203 63 338 0.0 0.0 0.00 0.00 0.00 88 1016.1
20260901113021 63 147 0.0 1.0 0.00 0.00 0.00 88 1016.8
20260901112703 63 338 0.0 0.0 0.00 0.00 0.00 88 1016.1
20260901112516 63 171 0.0 1.0 0.00 0.00 0.00 87 1016.7
20260901112203 63 338 0.0 0.0 0.00 0.00 0.00 88 1016.1
20260901112011 63 147 0.0 0.0 0.00 0.00 0.00 86 1016.8
20260901111703 63 338 0.0 0.0 0.00 0.00 0.00 88 1016.0
20260901111509 63 153 0.0 1.0 0.00 0.00 0.00 86 1016.9
20260901111204 63 338 0.0 0.0 0.00 0.00 0.00 88 1016.0
20260901111008 63 165 1.0 2.0 0.00 0.00 0.00 86 1016.8
20260901110703 62 358 0.0 0.0 0.00 0.00 0.00 88 1015.9
20260901110504 62 212 0.0 1.0 0.00 0.00 0.00 86 1016.5
20260901110203 62 120 0.0 0.0 0.00 0.00 0.00 88 1015.8
20260901105959 62 120 0.0 0.0 0.00 0.00 0.00 86 1016.4
20260901105703 62 128 0.0 0.0 0.00 0.00 0.00 88 1015.8
20260901105455 62 137 0.0 0.0 0.00 0.00 0.00 86 1016.5
20260901105204 62 128 0.0 0.0 0.00 0.00 0.00 88 1015.8
20260901104955 62 146 0.0 1.0 0.00 0.00 0.00 86 1016.6
20260901104703 63 141 0.0 0.0 0.00 0.00 0.00 88 1015.8
20260901104452 62 151 0.0 1.0 0.00 0.00 0.00 86 1016.8
20260901104203 63 293 0.0 0.0 0.00 0.00 0.00 88 1016.0
20260901103951 63 75 1.0 2.0 0.00 0.00 0.00 86 1016.6
20260901103446 63 148 0.0 1.0 0.00 0.00 0.00 86 1016.6
20260901103203 63 27 0.0 0.0 0.00 0.00 0.00 88 1015.7
20260901102941 62 130 0.0 0.0 0.00 0.00 0.00 87 1016.4
20260901102703 63 71 0.0 0.0 0.00 0.00 0.00 88 1015.5
20260901102436 63 122 0.0 0.0 0.00 0.00 0.00 87 1016.1
20260901102203 63 69 0.0 0.0 0.00 0.00 0.00 88 1015.5
20260901101931 63 134 0.0 0.0 0.00 0.00 0.00 87 1016.2
20260901101426 63 128 0.0 0.0 0.00 0.00 0.00 87 1016.4
20260901101203 63 64 0.0 0.0 0.00 0.00 0.00 88 1015.5
20260901100926 63 125 0.0 0.0 0.00 0.00 0.00 87 1016.2
20260901100421 63 118 0.0 0.0 0.00 0.00 0.00 87 1016.2
20260901100203 63 307 0.0 0.0 0.00 0.00 0.00 89 1015.3
20260901095920 63 128 0.0 0.0 0.00 0.00 0.00 87 1015.9
20260901095703 63 307 0.0 0.0 0.00 0.00 0.00 89 1015.1
20260901095419 63 112 0.0 0.0 0.00 0.00 0.00 87 1015.7
20260901095203 63 307 0.0 0.0 0.00 0.00 0.00 89 1015.1
20260901094917 63 96 0.0 0.0 0.00 0.00 0.00 88 1015.9
20260901094412 63 139 0.0 0.0 0.00 0.00 0.00 87 1015.7
20260901094203 63 307 0.0 0.0 0.00 0.00 0.00 89 1015.0
20260901093912 63 108 0.0 0.0 0.00 0.00 0.00 87 1015.9
20260901093703 63 307 0.0 0.0 0.00 0.00 0.00 89 1015.0
20260901093411 63 111 0.0 0.0 0.00 0.00 0.00 87 1015.7
20260901093203 63 307 0.0 0.0 0.00 0.00 0.00 89 1015.0
20260901092907 63 122 0.0 0.0 0.00 0.00 0.00 87 1015.8
20260901092703 63 307 0.0 0.0 0.00 0.00 0.00 89 1015.0
20260901092403 63 115 0.0 0.0 0.00 0.00 0.00 87 1015.8
20260901091858 63 117 0.0 0.0 0.00 0.00 0.00 87 1015.9
20260901091704 63 307 0.0 0.0 0.00 0.00 0.00 89 1015.1
20260901091358 63 125 0.0 0.0 0.00 0.00 0.00 87 1015.8
20260901091203 63 307 0.0 0.0 0.00 0.00 0.00 89 1015.1
20260901090853 63 119 0.0 0.0 0.00 0.00 0.00 88 1015.8
20260901090703 63 307 0.0 0.0 0.00 0.00 0.00 89 1015.1
20260901090348 63 116 0.0 0.0 0.00 0.00 0.00 88 1016.1
20260901090203 63 307 0.0 0.0 0.00 0.00 0.00 89 1015.1
20260901085844 63 104 0.0 0.0 0.00 0.00 0.00 88 1016.0
20260901085703 63 307 0.0 0.0 0.00 0.00 0.00 89 1015.1
20260901085339 63 92 0.0 0.0 0.00 0.00 0.00 88 1015.8
20260901085204 63 307 0.0 0.0 0.00 0.00 0.00 89 1015.0
20260901084836 63 133 0.0 0.0 0.00 0.00 0.00 88 1016.0
20260901084332 63 105 0.0 0.0 0.00 0.00 0.00 88 1015.7
20260901084203 63 307 0.0 0.0 0.00 0.00 0.00 89 1015.0
20260901083826 63 338 0.0 0.0 0.00 0.00 0.00 88 1015.9
20260901083704 63 307 0.0 0.0 0.00 0.00 0.00 89 1015.0
20260901083320 63 93 0.0 0.0 0.00 0.00 0.00 89 1015.8
20260901083203 63 307 0.0 0.0 0.00 0.00 0.00 89 1015.0
20260901082819 63 125 0.0 0.0 0.00 0.00 0.00 89 1015.8
20260901082703 63 307 0.0 0.0 0.00 0.00 0.00 89 1015.0
20260901082314 63 120 0.0 0.0 0.00 0.00 0.00 89 1015.8
20260901082203 63 307 0.0 0.0 0.00 0.00 0.00 89 1015.0
20260901081809 63 118 0.0 0.0 0.00 0.00 0.00 89 1015.9
20260901081703 63 307 0.0 0.0 0.00 0.00 0.00 89 1015.1
20260901081309 63 96 0.0 0.0 0.00 0.00 0.00 89 1015.7
20260901081203 63 256 0.0 0.0 0.00 0.00 0.00 89 1015.0
20260901080804 63 108 0.0 0.0 0.00 0.00 0.00 89 1015.9
20260901080703 63 256 0.0 0.0 0.00 0.00 0.00 89 1015.1
20260901080304 63 108 0.0 0.0 0.00 0.00 0.00 89 1016.0
20260901080203 63 256 0.0 0.0 0.00 0.00 0.00 89 1015.1
20260901075759 63 108 0.0 0.0 0.00 0.00 0.00 89 1015.8
20260901075703 63 256 0.0 0.0 0.00 0.00 0.00 89 1015.1
20260901075254 63 108 0.0 0.0 0.00 0.00 0.00 90 1016.0
20260901075204 63 256 0.0 0.0 0.00 0.00 0.00 89 1015.1
20260901074753 63 108 0.0 0.0 0.00 0.00 0.00 90 1015.9
20260901074703 63 256 0.0 0.0 0.00 0.00 0.00 89 1015.1
20260901074248 63 116 0.0 0.0 0.00 0.00 0.00 90 1016.0
20260901074203 63 256 0.0 0.0 0.00 0.00 0.00 89 1015.2
20260901073744 63 123 0.0 0.0 0.00 0.00 0.00 90 1015.9
20260901073703 63 256 0.0 0.0 0.00 0.00 0.00 89 1015.4
20260901073240 63 139 0.0 0.0 0.00 0.00 0.00 90 1016.2
20260901073203 63 256 0.0 0.0 0.00 0.00 0.00 89 1015.5
20260901072735 63 131 0.0 0.0 0.00 0.00 0.00 90 1016.4
20260901072231 63 131 0.0 0.0 0.00 0.00 0.00 90 1016.3
20260901072203 63 256 0.0 0.0 0.00 0.00 0.00 89 1015.5
20260901071730 63 132 0.0 0.0 0.00 0.00 0.00 90 1016.3
20260901071703 63 256 0.0 0.0 0.00 0.00 0.00 89 1015.5
20260901071230 63 134 0.0 0.0 0.00 0.00 0.00 90 1016.2
20260901070729 63 121 0.0 0.0 0.00 0.00 0.00 90 1016.3
20260901070703 63 256 0.0 0.0 0.00 0.00 0.00 89 1015.5
20260901070225 63 124 0.0 0.0 0.00 0.00 0.00 90 1016.3
20260901070204 63 256 0.0 0.0 0.00 0.00 0.00 89 1015.5
20260901065724 63 124 0.0 0.0 0.00 0.00 0.00 90 1016.3
20260901065703 63 256 0.0 0.0 0.00 0.00 0.00 89 1015.5
20260901065219 63 124 0.0 0.0 0.00 0.00 0.00 90 1016.5
20260901065203 63 256 0.0 0.0 0.00 0.00 0.00 88 1015.6
20260901064716 63 136 0.0 0.0 0.00 0.00 0.00 90 1016.5
20260901064704 63 256 0.0 0.0 0.00 0.00 0.00 88 1015.7
20260901064212 63 139 0.0 0.0 0.00 0.00 0.00 90 1016.4
20260901064204 63 256 0.0 0.0 0.00 0.00 0.00 88 1015.7
20260901063709 63 121 0.0 0.0 0.00 0.00 0.00 90 1016.5
20260901063703 63 256 0.0 0.0 0.00 0.00 0.00 88 1015.6
20260901063204 63 132 0.0 0.0 0.00 0.00 0.00 90 1016.6
20260901062704 63 256 0.0 0.0 0.00 0.00 0.00 88 1015.8
20260901062700 63 133 0.0 0.0 0.00 0.00 0.00 90 1016.8
20260901062203 63 256 0.0 0.0 0.00 0.00 0.00 88 1015.7
20260901062155 63 133 0.0 0.0 0.00 0.00 0.00 90 1016.5
20260901061703 63 256 0.0 0.0 0.00 0.00 0.00 88 1015.7
20260901061652 63 133 0.0 0.0 0.00 0.00 0.00 91 1016.6
20260901061204 63 256 0.0 0.0 0.00 0.00 0.00 88 1015.8
20260901061151 63 133 0.0 0.0 0.00 0.00 0.00 91 1016.6
20260901060704 63 256 0.0 0.0 0.00 0.00 0.00 88 1015.8
20260901060646 62 133 0.0 0.0 0.00 0.00 0.00 91 1016.4
20260901060203 63 256 0.0 0.0 0.00 0.00 0.00 87 1015.8
20260901060142 62 137 0.0 0.0 0.00 0.00 0.00 91 1016.6
20260901055703 63 256 0.0 0.0 0.00 0.00 0.00 87 1015.7
20260901055637 62 127 0.0 0.0 0.00 0.00 0.00 91 1016.5
20260901055203 63 256 0.0 0.0 0.00 0.00 0.00 87 1015.7
20260901055134 62 127 0.0 0.0 0.00 0.00 0.00 91 1016.5
20260901054703 63 256 0.0 0.0 0.00 0.00 0.00 87 1015.8
20260901054630 62 127 0.0 0.0 0.00 0.00 0.00 91 1016.6
20260901054203 63 256 0.0 0.0 0.00 0.00 0.00 87 1015.9
20260901054126 62 127 0.0 0.0 0.00 0.00 0.00 91 1016.7
20260901053703 63 256 0.0 0.0 0.00 0.00 0.00 87 1015.9
20260901053622 62 127 0.0 0.0 0.00 0.00 0.00 90 1016.6
20260901053203 63 256 0.0 0.0 0.00 0.00 0.00 87 1015.8
20260901053118 62 129 0.0 0.0 0.00 0.00 0.00 91 1016.6
20260901052618 62 129 0.0 0.0 0.00 0.00 0.00 90 1016.8
20260901052203 63 256 0.0 0.0 0.00 0.00 0.00 86 1015.9
20260901052113 62 129 0.0 0.0 0.00 0.00 0.00 90 1016.7
20260901051703 63 256 0.0 0.0 0.00 0.00 0.00 86 1016.0
20260901051613 62 129 0.0 0.0 0.00 0.00 0.00 90 1016.7
20260901051203 63 256 0.0 0.0 0.00 0.00 0.00 86 1016.0
20260901051111 62 131 0.0 0.0 0.00 0.00 0.00 90 1016.7
20260901050607 62 133 0.0 0.0 0.00 0.00 0.00 90 1016.6
20260901050203 64 256 0.0 0.0 0.00 0.00 0.00 86 1015.9
20260901045703 64 256 0.0 0.0 0.00 0.00 0.00 86 1015.8
20260901045558 62 123 0.0 0.0 0.00 0.00 0.00 90 1016.6
20260901045203 64 256 0.0 0.0 0.00 0.00 0.00 85 1015.7
20260901045057 62 154 0.0 0.0 0.00 0.00 0.00 90 1016.7
20260901044703 64 256 0.0 0.0 0.00 0.00 0.00 85 1015.8
20260901044554 62 126 0.0 0.0 0.00 0.00 0.00 90 1016.6
20260901044203 64 256 0.0 0.0 0.00 0.00 0.00 85 1015.7
20260901044049 63 127 0.0 0.0 0.00 0.00 0.00 89 1016.4
20260901043703 64 256 0.0 0.0 0.00 0.00 0.00 85 1015.7
20260901043545 63 127 0.0 0.0 0.00 0.00 0.00 89 1016.5
20260901043040 63 135 0.0 0.0 0.00 0.00 0.00 89 1016.6
20260901042703 64 256 0.0 0.0 0.00 0.00 0.00 85 1015.8
20260901042539 63 130 0.0 0.0 0.00 0.00 0.00 88 1016.6
20260901042203 64 256 0.0 0.0 0.00 0.00 0.00 84 1015.7
20260901042035 63 133 0.0 0.0 0.00 0.00 0.00 88 1016.5
20260901041703 64 256 0.0 0.0 0.00 0.00 0.00 84 1015.7
20260901041530 63 147 0.0 0.0 0.00 0.00 0.00 88 1016.7
20260901041203 65 256 0.0 0.0 0.00 0.00 0.00 84 1015.7
20260901041025 64 130 0.0 0.0 0.00 0.00 0.00 87 1016.4
20260901040703 65 256 0.0 0.0 0.00 0.00 0.00 84 1015.7
20260901040519 64 132 0.0 0.0 0.00 0.00 0.00 87 1016.5
20260901040019 64 130 0.0 0.0 0.00 0.00 0.00 87 1016.5
20260901035703 65 256 0.0 0.0 0.00 0.00 0.00 84 1015.8
20260901035517 64 136 0.0 0.0 0.00 0.00 0.00 86 1016.6
20260901035203 65 256 0.0 0.0 0.00 0.00 0.00 84 1015.8
20260901035016 64 138 0.0 0.0 0.00 0.00 0.00 86 1016.5
20260901034703 65 256 0.0 0.0 0.00 0.00 0.00 83 1015.8
20260901034515 64 151 0.0 0.0 0.00 0.00 0.00 87 1016.6
20260901034203 65 256 0.0 0.0 0.00 0.00 0.00 83 1015.7
20260901034010 64 118 0.0 0.0 0.00 0.00 0.00 87 1016.4
20260901033703 65 257 0.0 0.0 0.00 0.00 0.00 83 1015.7
20260901033510 64 116 0.0 0.0 0.00 0.00 0.00 87 1016.6
20260901033203 65 261 0.0 0.0 0.00 0.00 0.00 83 1015.7
20260901033010 64 133 0.0 0.0 0.00 0.00 0.00 86 1016.5
20260901032503 64 156 0.0 0.0 0.00 0.00 0.00 86 1016.5
20260901031958 64 143 0.0 0.0 0.00 0.00 0.00 86 1016.5
20260901031703 66 261 0.0 0.0 0.00 0.00 0.00 82 1015.8
20260901031454 64 131 0.0 0.0 0.00 0.00 0.00 86 1016.8
20260901031203 66 261 0.0 0.0 0.00 0.00 0.00 82 1015.9
20260901030953 64 156 0.0 0.0 0.00 0.00 0.00 86 1016.6
20260901030703 66 261 0.0 0.0 0.00 0.00 0.00 81 1015.9
20260901030449 64 133 0.0 0.0 0.00 0.00 0.00 86 1016.6
20260901025948 64 133 0.0 0.0 0.00 0.00 0.00 85 1016.8
20260901025703 66 261 0.0 0.0 0.00 0.00 0.00 81 1016.0
20260901025443 65 133 0.0 0.0 0.00 0.00 0.00 85 1016.9
20260901025203 66 261 0.0 0.0 0.00 0.00 0.00 81 1015.9
20260901024942 65 137 0.0 0.0 0.00 0.00 0.00 85 1016.8
20260901024703 66 261 0.0 0.0 0.00 0.00 0.00 80 1015.8
20260901024438 65 141 0.0 0.0 0.00 0.00 0.00 85 1016.7
20260901023936 65 129 0.0 0.0 0.00 0.00 0.00 84 1016.6
20260901023703 67 261 0.0 0.0 0.00 0.00 0.00 79 1015.8
20260901023430 65 129 0.0 0.0 0.00 0.00 0.00 84 1016.7
20260901023203 67 261 0.0 0.0 0.00 0.00 0.00 79 1015.8
20260901022926 65 129 0.0 0.0 0.00 0.00 0.00 83 1016.6
20260901022703 67 261 0.0 0.0 0.00 0.00 0.00 79 1015.7
20260901022421 66 129 0.0 0.0 0.00 0.00 0.00 82 1016.5
20260901022203 67 261 0.0 0.0 0.00 0.00 0.00 78 1015.6
20260901021916 66 140 0.0 0.0 0.00 0.00 0.00 81 1016.6
20260901021703 67 261 0.0 0.0 0.00 0.00 0.00 78 1015.6
20260901021412 66 137 0.0 0.0 0.00 0.00 0.00 81 1016.5
20260901021203 67 261 0.0 0.0 0.00 0.00 0.00 77 1015.6
20260901020907 66 126 0.0 0.0 0.00 0.00 0.00 81 1016.2
20260901020704 68 261 0.0 0.0 0.00 0.00 0.00 77 1015.7
20260901020402 66 128 0.0 0.0 0.00 0.00 0.00 81 1016.3
20260901020203 68 261 0.0 0.0 0.00 0.00 0.00 76 1015.6
20260901015901 66 141 0.0 0.0 0.00 0.00 0.00 81 1016.5
20260901015703 68 261 0.0 0.0 0.00 0.00 0.00 76 1015.7
20260901015358 66 150 0.0 0.0 0.00 0.00 0.00 81 1016.3
20260901014857 66 134 0.0 0.0 0.00 0.00 0.00 80 1016.5
20260901014704 68 261 0.0 0.0 0.00 0.00 0.00 76 1015.7
20260901014353 67 134 0.0 0.0 0.00 0.00 0.00 80 1016.5
20260901014203 68 261 0.0 0.0 0.00 0.00 0.00 75 1015.7
20260901013849 67 144 0.0 0.0 0.00 0.00 0.00 79 1016.4
20260901013703 68 261 0.0 0.0 0.00 0.00 0.00 75 1015.7
20260901013344 67 147 0.0 0.0 0.00 0.00 0.00 79 1016.5
20260901012840 67 130 0.0 0.0 0.00 0.00 0.00 79 1016.6
20260901012704 69 261 0.0 0.0 0.00 0.00 0.00 74 1015.8
20260901012335 67 135 0.0 0.0 0.00 0.00 0.00 78 1016.7
20260901012204 69 261 0.0 0.0 0.00 0.00 0.00 74 1015.9
20260901011830 68 136 0.0 0.0 0.00 0.00 0.00 77 1016.8
20260901011703 69 261 0.0 0.0 0.00 0.00 0.00 74 1015.9
20260901011326 68 134 0.0 0.0 0.00 0.00 0.00 77 1016.8
20260901011203 69 261 0.0 0.0 0.00 0.00 0.00 74 1015.9
20260901010825 68 151 0.0 0.0 0.00 0.00 0.00 77 1016.6
20260901010704 69 261 0.0 0.0 0.00 0.00 0.00 73 1015.9
20260901010320 68 144 0.0 0.0 0.00 0.00 0.00 76 1016.7
20260901010203 69 261 0.0 0.0 0.00 0.00 0.00 73 1015.9
20260901005818 68 144 0.0 0.0 0.00 0.00 0.00 75 1016.7
20260901005703 70 261 0.0 0.0 0.00 0.00 0.00 73 1015.9
20260901005314 68 144 0.0 0.0 0.00 0.00 0.00 75 1016.8
20260901005203 70 261 0.0 0.0 0.00 0.00 0.00 73 1015.9
20260901004814 68 144 0.0 0.0 0.00 0.00 0.00 74 1016.6
20260901004704 70 261 0.0 0.0 0.00 0.00 0.00 73 1015.9
20260901004308 69 139 0.0 0.0 0.00 0.00 0.00 74 1016.6
20260901003803 69 138 0.0 0.0 0.00 0.00 0.00 73 1016.5
20260901003258 69 165 0.0 0.0 0.00 0.00 0.00 73 1016.4
20260901003203 71 261 0.0 0.0 0.00 0.00 0.00 71 1015.7
20260901002756 69 150 0.0 0.0 0.00 0.00 0.00 73 1016.3
20260901002703 71 261 0.0 0.0 0.00 0.00 0.00 71 1015.7
20260901002251 69 194 0.0 1.0 0.00 0.00 0.00 72 1016.4
20260901002203 71 261 0.0 0.0 0.00 0.00 0.00 70 1015.7
20260901001746 69 124 0.0 1.0 0.00 0.00 0.00 72 1016.3
20260901001704 72 261 0.0 0.0 0.00 0.00 0.00 69 1015.6
20260901001242 70 116 0.0 0.0 0.00 0.00 0.00 71 1016.3
20260901001203 72 261 0.0 0.0 0.00 0.00 0.00 69 1015.6
20260901000737 70 137 0.0 0.0 0.00 0.00 0.00 70 1016.5
20260901000703 72 261 0.0 0.0 0.00 0.00 0.00 69 1015.6
20260901000233 70 123 0.0 0.0 0.00 0.00 0.00 70 1016.4
20260901000204 72 261 0.0 0.0 0.00 0.00 0.00 68 1015.6
20260831235731 71 141 0.0 0.0 0.00 0.00 0.00 69 1016.4
20260831235704 73 261 0.0 0.0 0.00 0.00 0.00 68 1015.5
20260831235227 71 137 0.0 1.0 0.00 0.00 0.00 68 1016.1
20260831235203 73 261 0.0 0.0 0.00 0.00 0.00 67 1015.5
20260831234727 71 186 1.0 1.0 0.00 0.00 0.00 67 1016.2
20260831234703 73 261 0.0 0.0 0.00 0.00 0.00 66 1015.4
20260831234227 71 135 0.0 1.0 0.00 0.00 0.00 67 1016.0
20260831233722 72 137 0.0 0.0 0.00 0.00 0.00 66 1016.4
20260831233703 74 261 0.0 0.0 0.00 0.00 0.00 64 1015.4
20260831233218 72 150 0.0 0.0 0.00 0.00 0.00 65 1016.4
20260831232718 73 127 0.0 0.0 0.00 0.00 0.00 63 1016.4
20260831232214 73 134 0.0 0.0 0.00 0.00 0.00 62 1016.6
20260831231710 74 159 0.0 1.0 0.00 0.00 0.00 60 1016.6
20260831231703 75 258 0.0 0.0 0.00 0.00 0.00 62 1015.8
20260831231206 74 166 0.0 1.0 0.00 0.00 0.00 60 1016.7
20260831231204 75 263 0.0 0.0 0.00 0.00 0.00 62 1015.7
20260831230703 75 265 0.0 0.0 0.00 0.00 0.00 61 1015.7
20260831230701 75 107 0.0 1.0 0.00 0.00 0.00 58 1016.4
20260831230203 76 265 0.0 0.0 0.00 0.00 0.00 61 1015.7
20260831230156 75 350 1.0 1.0 0.00 0.00 0.00 58 1016.5
20260831225656 75 136 0.0 1.0 0.00 0.00 0.00 58 1016.4
20260831225204 76 339 0.0 0.0 0.00 0.00 0.00 60 1015.8
20260831225150 75 134 0.0 1.0 0.00 0.00 0.00 58 1016.6
20260831224704 76 311 0.0 1.0 0.00 0.00 0.00 60 1015.9
20260831224645 75 173 3.0 4.0 0.00 0.00 0.00 57 1016.8
20260831224203 77 306 0.0 0.0 0.00 0.00 0.00 59 1015.9
20260831224140 76 350 2.0 3.0 0.00 0.00 0.00 56 1016.6
20260831223703 77 260 0.0 1.0 0.00 0.00 0.00 58 1015.9
20260831223636 76 261 3.0 4.0 0.00 0.00 0.00 56 1016.7
20260831223203 77 247 1.0 3.0 0.00 0.00 0.00 57 1015.9
20260831223132 76 300 2.0 2.0 0.00 0.00 0.00 55 1016.6
20260831222703 78 291 0.0 1.0 0.00 0.00 0.00 56 1015.9
20260831222628 77 63 1.0 2.0 0.00 0.00 0.00 54 1016.7
20260831222204 78 285 0.0 5.0 0.00 0.00 0.00 55 1015.9
20260831222123 77 126 0.0 3.0 0.00 0.00 0.00 53 1016.7
20260831221703 78 263 0.0 1.0 0.00 0.00 0.00 55 1015.8
20260831221619 77 130 0.0 3.0 0.00 0.00 0.00 53 1016.6
20260831221204 79 251 0.0 8.0 0.00 0.00 0.00 54 1015.8
20260831221114 78 166 0.0 3.0 0.00 0.00 0.00 50 1016.5
20260831220609 80 210 1.0 4.0 0.00 0.00 0.00 49 1016.5
20260831220204 79 297 0.0 0.0 0.00 0.00 0.00 54 1015.7
20260831220104 80 54 0.0 1.0 0.00 0.00 0.00 48 1016.2
20260831215703 79 334 1.0 3.0 0.00 0.00 0.00 54 1015.6
20260831215559 80 285 2.0 2.0 0.00 0.00 0.00 48 1016.5
20260831215204 79 247 0.0 0.0 0.00 0.00 0.00 53 1015.7
20260831215055 80 191 1.0 1.0 0.00 0.00 0.00 48 1016.4
20260831214703 79 205 0.0 0.0 0.00 0.00 0.00 52 1015.6
20260831214552 80 121 0.0 2.0 0.00 0.00 0.00 47 1016.4
20260831214204 79 321 0.0 1.0 0.00 0.00 0.00 52 1015.6
20260831214048 80 231 0.0 3.0 0.00 0.00 0.00 46 1016.3
20260831213703 79 298 0.0 0.0 0.00 0.00 0.00 51 1015.6
20260831213545 80 285 1.0 2.0 0.00 0.00 0.00 46 1016.5
20260831213203 80 219 0.0 0.0 0.00 0.00 0.00 49 1015.7
20260831213040 80 176 1.0 3.0 0.00 0.00 0.00 45 1016.3
20260831212703 80 321 0.0 0.0 0.00 0.00 0.00 46 1015.6
20260831212536 80 152 0.0 1.0 0.00 0.00 0.00 42 1016.5
20260831212204 80 202 0.0 0.0 0.00 0.00 0.00 45 1015.6
20260831212031 80 150 0.0 2.0 0.00 0.00 0.00 41 1016.3
20260831211704 80 191 0.0 1.0 0.00 0.00 0.00 45 1015.6
20260831211525 81 153 1.0 2.0 0.00 0.00 0.00 40 1016.4
20260831211203 81 213 0.0 0.0 0.00 0.00 0.00 47 1015.7
20260831211024 81 176 1.0 1.0 0.00 0.00 0.00 42 1016.6
20260831210703 80 285 0.0 0.0 0.00 0.00 0.00 45 1015.8
20260831210520 81 235 3.0 4.0 0.00 0.00 0.00 41 1016.7
20260831210204 80 313 0.0 0.0 0.00 0.00 0.00 47 1015.8
20260831210016 81 286 4.0 4.0 0.00 0.00 0.00 43 1016.7
20260831205704 80 208 1.0 6.0 0.00 0.00 0.00 48 1015.9
20260831205516 80 226 1.0 3.0 0.00 0.00 0.00 46 1016.7
20260831205203 80 202 0.0 1.0 0.00 0.00 0.00 50 1015.9
20260831205013 80 174 1.0 4.0 0.00 0.00 0.00 46 1016.9
20260831204703 81 294 1.0 3.0 0.00 0.00 0.00 49 1015.9
20260831204513 80 217 1.0 4.0 0.00 0.00 0.00 48 1016.7
20260831204011 81 153 4.0 6.0 0.00 0.00 0.00 45 1016.9
20260831203703 81 322 0.0 0.0 0.00 0.00 0.00 51 1016.0
20260831203510 80 232 1.0 2.0 0.00 0.00 0.00 47 1016.9
20260831203009 79 238 1.0 2.0 0.00 0.00 0.00 48 1016.9
20260831202703 81 284 0.0 0.0 0.00 0.00 0.00 50 1016.0
20260831202504 81 164 1.0 3.0 0.00 0.00 0.00 46 1016.7
20260831202204 81 204 0.0 0.0 0.00 0.00 0.00 50 1016.0
20260831202003 82 147 1.0 6.0 0.00 0.00 0.00 44 1016.7
20260831201704 81 188 0.0 0.0 0.00 0.00 0.00 48 1016.0
20260831201502 82 153 0.0 2.0 0.00 0.00 0.00 43 1016.7
20260831201203 81 333 0.0 0.0 0.00 0.00 0.00 49 1016.0
20260831200958 82 149 0.0 2.0 0.00 0.00 0.00 43 1016.9
20260831200703 80 295 0.0 0.0 0.00 0.00 0.00 49 1016.1
20260831200454 80 231 2.0 2.0 0.00 0.00 0.00 44 1017.1
20260831200203 80 323 0.0 0.0 0.00 0.00 0.00 50 1016.1
20260831195953 78 142 0.0 2.0 0.00 0.00 0.00 46 1016.8
20260831195703 80 225 0.0 0.0 0.00 0.00 0.00 49 1016.1
20260831195449 80 171 2.0 3.0 0.00 0.00 0.00 47 1016.9
20260831195203 81 231 0.0 0.0 0.00 0.00 0.00 48 1016.1
20260831194944 80 319 3.0 3.0 0.00 0.00 0.00 44 1016.9
20260831194703 81 242 0.0 1.0 0.00 0.00 0.00 47 1016.1
20260831194440 80 136 0.0 3.0 0.00 0.00 0.00 42 1017.1
20260831194203 81 294 1.0 7.0 0.00 0.00 0.00 48 1016.2
20260831193939 80 314 3.0 4.0 0.00 0.00 0.00 44 1017.2
20260831193703 82 302 0.0 3.0 0.00 0.00 0.00 46 1016.2
20260831193434 81 210 1.0 9.0 0.00 0.00 0.00 44 1017.3
20260831193203 82 292 0.0 3.0 0.00 0.00 0.00 46 1016.2
20260831192929 81 90 2.0 4.0 0.00 0.00 0.00 42 1017.2
20260831192424 82 95 2.0 4.0 0.00 0.00 0.00 40 1017.2
20260831192204 83 192 0.0 0.0 0.00 0.00 0.00 46 1016.2
20260831191919 83 99 0.0 2.0 0.00 0.00 0.00 40 1017.1
20260831191703 83 333 0.0 0.0 0.00 0.00 0.00 44 1016.2
20260831191415 82 145 1.0 3.0 0.00 0.00 0.00 40 1017.3
20260831191203 82 298 0.0 0.0 0.00 0.00 0.00 45 1016.3
20260831190912 83 182 3.0 6.0 0.00 0.00 0.00 39 1017.2
20260831190703 82 200 1.0 7.0 0.00 0.00 0.00 47 1016.3
20260831190411 82 227 0.0 1.0 0.00 0.00 0.00 43 1017.2
20260831190204 82 315 0.0 1.0 0.00 0.00 0.00 46 1016.5
20260831185911 81 226 1.0 2.0 0.00 0.00 0.00 41 1017.5
20260831185703 82 223 0.0 1.0 0.00 0.00 0.00 45 1016.5
20260831185407 82 131 2.0 3.0 0.00 0.00 0.00 39 1017.5
20260831185204 82 289 0.0 2.0 0.00 0.00 0.00 45 1016.6
20260831184906 82 141 2.0 3.0 0.00 0.00 0.00 39 1017.5
20260831184704 82 186 0.0 1.0 0.00 0.00 0.00 45 1016.6
20260831184401 81 176 1.0 2.0 0.00 0.00 0.00 41 1017.7
20260831184203 81 197 0.0 0.0 0.00 0.00 0.00 46 1016.7
20260831183856 81 134 1.0 3.0 0.00 0.00 0.00 41 1017.7
20260831183703 81 217 0.0 0.0 0.00 0.00 0.00 46 1016.7
20260831183356 81 183 2.0 2.0 0.00 0.00 0.00 42 1017.7
20260831183203 80 300 0.0 0.0 0.00 0.00 0.00 46 1016.8
20260831182855 81 129 3.0 6.0 0.00 0.00 0.00 42 1017.7
20260831182704 80 293 0.0 3.0 0.00 0.00 0.00 46 1016.9
20260831182350 81 282 3.0 6.0 0.00 0.00 0.00 41 1018.1
20260831182204 80 301 0.0 3.0 0.00 0.00 0.00 48 1016.9
20260831181846 79 222 2.0 2.0 0.00 0.00 0.00 43 1017.8
20260831181704 79 256 0.0 1.0 0.00 0.00 0.00 46 1016.9
20260831181341 79 326 3.0 4.0 0.00 0.00 0.00 42 1018.2
20260831181203 79 202 0.0 1.0 0.00 0.00 0.00 48 1017.0
20260831180835 78 197 1.0 2.0 0.00 0.00 0.00 45 1018.0
20260831180330 78 253 2.0 3.0 0.00 0.00 0.00 44 1017.9
20260831180204 79 274 0.0 0.0 0.00 0.00 0.00 48 1017.0
20260831175829 78 17 3.0 3.0 0.00 0.00 0.00 41 1018.2
20260831175326 78 34 2.0 2.0 0.00 0.00 0.00 42 1018.2
20260831175203 79 355 0.0 9.0 0.00 0.00 0.00 45 1017.2
20260831174822 80 347 1.0 6.0 0.00 0.00 0.00 41 1018.3
20260831174317 78 277 1.0 4.0 0.00 0.00 0.00 44 1018.2
20260831173816 79 104 1.0 4.0 0.00 0.00 0.00 41 1018.3
20260831173703 79 238 0.0 0.0 0.00 0.00 0.00 49 1017.4
20260831173310 78 151 1.0 3.0 0.00 0.00 0.00 44 1018.2
20260831173204 78 183 0.0 0.0 0.00 0.00 0.00 48 1017.4
20260831172806 77 204 1.0 4.0 0.00 0.00 0.00 45 1018.2
20260831172703 78 210 0.0 0.0 0.00 0.00 0.00 48 1017.4
20260831172305 77 204 1.0 2.0 0.00 0.00 0.00 43 1018.3
20260831172204 78 254 0.0 0.0 0.00 0.00 0.00 46 1017.5
20260831171801 77 145 0.0 2.0 0.00 0.00 0.00 42 1018.3
20260831171703 78 267 0.0 0.0 0.00 0.00 0.00 45 1017.6
20260831171258 78 124 1.0 4.0 0.00 0.00 0.00 40 1018.5
20260831171203 78 230 0.0 1.0 0.00 0.00 0.00 44 1017.6
20260831170755 77 92 1.0 3.0 0.00 0.00 0.00 40 1018.6
20260831170703 78 321 0.0 0.0 0.00 0.00 0.00 43 1017.6
20260831170251 78 313 4.0 6.0 0.00 0.00 0.00 39 1018.6
20260831170204 79 336 0.0 2.0 0.00 0.00 0.00 43 1017.8
20260831165747 78 308 4.0 7.0 0.00 0.00 0.00 39 1018.7
20260831165703 78 2 0.0 0.0 0.00 0.00 0.00 43 1017.8
20260831165243 78 142 3.0 4.0 0.00 0.00 0.00 41 1018.6
20260831165204 78 310 0.0 0.0 0.00 0.00 0.00 49 1017.8
20260831164738 77 202 3.0 3.0 0.00 0.00 0.00 48 1018.8
20260831164704 78 285 0.0 0.0 0.00 0.00 0.00 50 1017.9
20260831164235 77 160 1.0 2.0 0.00 0.00 0.00 49 1018.9
20260831163729 76 163 1.0 4.0 0.00 0.00 0.00 47 1018.8
20260831163225 77 282 3.0 4.0 0.00 0.00 0.00 46 1018.9
20260831163204 77 317 0.0 0.0 0.00 0.00 0.00 51 1018.0
20260831162724 77 141 1.0 4.0 0.00 0.00 0.00 47 1018.8
20260831162703 77 345 0.0 0.0 0.00 0.00 0.00 52 1018.0
20260831162223 77 113 0.0 1.0 0.00 0.00 0.00 46 1018.8
20260831162203 77 12 0.0 5.0 0.00 0.00 0.00 51 1018.1
20260831161718 76 168 1.0 3.0 0.00 0.00 0.00 48 1019.1
20260831161703 77 307 0.0 3.0 0.00 0.00 0.00 53 1018.1
20260831161215 76 288 2.0 3.0 0.00 0.00 0.00 48 1019.1
20260831161203 76 257 0.0 8.0 0.00 0.00 0.00 54 1018.1
20260831160714 75 207 2.0 3.0 0.00 0.00 0.00 49 1019.1
20260831160704 76 194 0.0 0.0 0.00 0.00 0.00 53 1018.3
20260831160209 75 178 3.0 6.0 0.00 0.00 0.00 50 1019.1
20260831160203 76 186 0.0 0.0 0.00 0.00 0.00 54 1018.3
20260831155704 76 153 1.0 4.0 0.00 0.00 0.00 49 1019.2
20260831155203 76 157 1.0 6.0 0.00 0.00 0.00 54 1018.3
20260831155159 76 134 2.0 4.0 0.00 0.00 0.00 49 1019.2
20260831154703 76 100 0.0 0.0 0.00 0.00 0.00 56 1018.3
20260831154654 75 170 1.0 1.0 0.00 0.00 0.00 51 1019.0
20260831154150 75 114 1.0 2.0 0.00 0.00 0.00 52 1019.1
20260831153704 76 163 0.0 1.0 0.00 0.00 0.00 54 1018.3
20260831153649 75 198 1.0 2.0 0.00 0.00 0.00 49 1019.0
20260831153203 75 261 0.0 1.0 0.00 0.00 0.00 53 1018.4
20260831153145 74 101 0.0 1.0 0.00 0.00 0.00 49 1019.1
20260831152703 75 281 0.0 1.0 0.00 0.00 0.00 55 1018.5
20260831152640 75 283 2.0 3.0 0.00 0.00 0.00 50 1019.3
20260831152136 75 145 1.0 2.0 0.00 0.00 0.00 50 1019.3
20260831151703 75 199 0.0 0.0 0.00 0.00 0.00 55 1018.6
20260831151636 76 185 3.0 4.0 0.00 0.00 0.00 49 1019.3
20260831151203 75 186 0.0 0.0 0.00 0.00 0.00 56 1018.5
20260831151130 75 181 1.0 2.0 0.00 0.00 0.00 51 1019.4
20260831150703 74 329 0.0 0.0 0.00 0.00 0.00 57 1018.6
20260831150626 75 168 1.0 1.0 0.00 0.00 0.00 51 1019.5
20260831150204 74 265 1.0 6.0 0.00 0.00 0.00 57 1018.6
20260831150122 74 57 2.0 3.0 0.00 0.00 0.00 51 1019.6
20260831145703 74 118 0.0 1.0 0.00 0.00 0.00 57 1018.6
20260831145621 74 132 4.0 6.0 0.00 0.00 0.00 50 1019.3
20260831145204 73 127 0.0 0.0 0.00 0.00 0.00 58 1018.7
20260831145117 74 204 2.0 4.0 0.00 0.00 0.00 51 1019.5
20260831144703 73 94 0.0 0.0 0.00 0.00 0.00 58 1018.8
20260831144613 74 125 1.0 2.0 0.00 0.00 0.00 51 1019.5
20260831144109 73 283 2.0 4.0 0.00 0.00 0.00 50 1019.6
20260831143703 73 71 0.0 0.0 0.00 0.00 0.00 59 1018.8
20260831143608 72 143 0.0 3.0 0.00 0.00 0.00 54 1019.5
20260831143204 72 328 0.0 0.0 0.00 0.00 0.00 59 1018.9
20260831143103 73 31 3.0 6.0 0.00 0.00 0.00 52 1019.6
20260831142600 73 8 1.0 3.0 0.00 0.00 0.00 51 1019.7
20260831142204 71 146 0.0 0.0 0.00 0.00 0.00 61 1018.9
20260831142055 73 167 2.0 2.0 0.00 0.00 0.00 52 1019.6
20260831141703 71 47 0.0 0.0 0.00 0.00 0.00 63 1018.9
20260831141554 72 103 1.0 3.0 0.00 0.00 0.00 53 1019.6
20260831141049 71 181 3.0 3.0 0.00 0.00 0.00 54 1019.9
20260831140703 70 92 0.0 1.0 0.00 0.00 0.00 63 1018.9
20260831140549 70 151 1.0 3.0 0.00 0.00 0.00 55 1019.6
20260831140204 70 297 0.0 1.0 0.00 0.00 0.00 64 1018.9
20260831140049 71 311 2.0 4.0 0.00 0.00 0.00 55 1019.6
20260831135704 69 2 0.0 3.0 0.00 0.00 0.00 66 1018.8
20260831135547 71 242 2.0 4.0 0.00 0.00 0.00 54 1019.6
20260831135203 69 0 0.0 0.0 0.00 0.00 0.00 67 1018.7
20260831135042 70 217 0.0 4.0 0.00 0.00 0.00 58 1019.6
20260831134703 68 324 0.0 0.0 0.00 0.00 0.00 68 1018.8
20260831134538 70 110 1.0 2.0 0.00 0.00 0.00 59 1019.6
20260831134204 68 316 0.0 0.0 0.00 0.00 0.00 70 1018.7
20260831134038 69 202 0.0 2.0 0.00 0.00 0.00 61 1019.4
20260831133704 68 308 0.0 0.0 0.00 0.00 0.00 71 1018.7
20260831133532 69 161 2.0 3.0 0.00 0.00 0.00 62 1019.5
20260831133203 67 309 0.0 0.0 0.00 0.00 0.00 72 1018.6
20260831133027 69 171 0.0 2.0 0.00 0.00 0.00 62 1019.5
20260831132703 67 304 0.0 0.0 0.00 0.00 0.00 73 1018.7
20260831132524 68 117 0.0 1.0 0.00 0.00 0.00 65 1019.4
20260831132203 66 325 1.0 5.0 0.00 0.00 0.00 74 1018.7
20260831132023 69 276 3.0 6.0 0.00 0.00 0.00 63 1019.3
20260831131704 66 96 0.0 2.0 0.00 0.00 0.00 77 1018.7
20260831131522 67 225 2.0 3.0 0.00 0.00 0.00 66 1019.4
20260831131204 65 300 0.0 0.0 0.00 0.00 0.00 78 1018.7
20260831131020 67 105 1.0 2.0 0.00 0.00 0.00 67 1019.4
20260831130519 67 122 0.0 3.0 0.00 0.00 0.00 68 1019.5
20260831130204 64 303 0.0 1.0 0.00 0.00 0.00 81 1018.8
20260831130015 66 235 0.0 3.0 0.00 0.00 0.00 70 1019.7
20260831125703 63 16 0.0 0.0 0.00 0.00 0.00 82 1018.8
20260831125508 66 232 2.0 3.0 0.00 0.00 0.00 69 1019.4
20260831125204 62 291 0.0 0.0 0.00 0.00 0.00 85 1018.7
20260831125004 65 218 2.0 4.0 0.00 0.00 0.00 69 1019.4
20260831124704 62 320 0.0 0.0 0.00 0.00 0.00 86 1018.8
20260831124500 65 217 2.0 2.0 0.00 0.00 0.00 71 1019.6
20260831124203 61 295 0.0 0.0 0.00 0.00 0.00 88 1018.7
20260831123955 64 168 2.0 3.0 0.00 0.00 0.00 71 1019.3
20260831123703 61 309 0.0 0.0 0.00 0.00 0.00 89 1018.7
20260831123454 64 81 2.0 4.0 0.00 0.00 0.00 73 1019.4
20260831123203 60 283 0.0 0.0 0.00 0.00 0.00 90 1018.7
20260831122949 63 154 2.0 3.0 0.00 0.00 0.00 76 1019.4
20260831122704 60 24 0.0 0.0 0.00 0.00 0.00 91 1018.8
20260831122444 62 111 0.0 1.0 0.00 0.00 0.00 77 1019.5
20260831122203 59 8 0.0 0.0 0.00 0.00 0.00 91 1018.7
20260831121940 62 124 1.0 2.0 0.00 0.00 0.00 78 1019.5
20260831121703 59 313 0.0 0.0 0.00 0.00 0.00 91 1018.6
20260831121435 62 59 0.0 2.0 0.00 0.00 0.00 79 1019.2
20260831121203 58 279 0.0 0.0 0.00 0.00 0.00 92 1018.5
20260831120931 61 144 0.0 2.0 0.00 0.00 0.00 80 1019.1
20260831120704 58 0 0.0 0.0 0.00 0.00 0.00 92 1018.4
20260831120425 61 153 0.0 2.0 0.00 0.00 0.00 82 1019.1
20260831120204 58 337 0.0 0.0 0.00 0.00 0.00 92 1018.5
20260831115925 60 150 0.0 0.0 0.00 0.00 0.00 86 1019.2
20260831115704 58 305 0.0 0.0 0.00 0.00 0.00 92 1018.4
20260831115422 59 147 0.0 0.0 0.00 0.00 0.00 87 1019.1